GW0319 Weather Reports


time (UTC)temp
C
wind
direction
speed
KPH
gust
KPH
rain 1hr
cm
rain 24hr
cm
rain mn
cm
humidity
%
barometer
mb
20260503200420 16 194 1.6 4.8 0.00 0.00 0.00 67 1013.0
20260503195918 16 181 1.6 4.8 0.00 0.00 0.00 67 1012.9
20260503195438 16 201 1.6 6.4 0.00 0.00 0.00 66 1013.0
20260503194916 16 229 3.2 8.0 0.00 0.00 0.00 65 1012.9
20260503194420 16 243 3.2 8.0 0.00 0.00 0.00 67 1012.8
20260503193918 16 179 1.6 3.2 0.00 0.00 0.00 69 1012.8
20260503193417 16 34 3.2 9.7 0.00 0.00 0.00 67 1013.0
20260503192916 16 235 4.8 8.0 0.00 0.00 0.00 68 1012.9
20260503192419 16 186 4.8 6.4 0.00 0.00 0.00 68 1012.9
20260503191918 16 214 3.2 6.4 0.00 0.00 0.00 66 1012.9
20260503191417 16 111 1.6 3.2 0.00 0.00 0.00 66 1012.9
20260503190956 16 194 3.2 6.4 0.00 0.00 0.00 66 1012.8
20260503190419 16 218 3.2 8.0 0.00 0.00 0.00 68 1012.8
20260503185939 16 140 4.8 6.4 0.00 0.00 0.00 69 1012.9
20260503185416 16 185 3.2 8.0 0.00 0.00 0.00 68 1013.0
20260503184915 16 166 4.8 4.8 0.00 0.00 0.00 70 1012.8
20260503184420 15 187 3.2 4.8 0.00 0.00 0.00 69 1012.8
20260503183918 16 160 3.2 4.8 0.00 0.00 0.00 68 1012.8
20260503183416 16 208 3.2 4.8 0.00 0.00 0.00 69 1012.9
20260503182936 16 196 3.2 6.4 0.00 0.00 0.00 68 1012.7
20260503182420 16 195 3.2 4.8 0.00 0.00 0.00 68 1012.8
20260503181918 16 150 4.8 6.4 0.00 0.00 0.00 68 1012.8
20260503181437 16 139 3.2 6.4 0.00 0.00 0.00 66 1012.7
20260503180917 16 178 1.6 4.8 0.00 0.00 0.00 67 1012.5
20260503180419 16 169 6.4 8.0 0.00 0.00 0.00 68 1012.5
20260503175918 16 148 1.6 4.8 0.00 0.00 0.00 67 1012.7
20260503175417 16 183 3.2 4.8 0.00 0.00 0.00 67 1012.5
20260503174916 16 213 1.6 4.8 0.00 0.00 0.00 69 1012.6
20260503174420 16 179 4.8 6.4 0.00 0.00 0.00 69 1012.8
20260503173939 16 133 6.4 9.7 0.00 0.00 0.00 70 1012.7
20260503173437 16 135 8.0 12.9 0.00 0.00 0.00 70 1012.8
20260503172936 15 147 3.2 6.4 0.00 0.00 0.00 71 1012.6
20260503172420 15 213 4.8 4.8 0.00 0.00 0.00 73 1012.8
20260503171918 15 131 6.4 8.0 0.00 0.00 0.00 72 1012.5
20260503171437 15 118 3.2 8.0 0.00 0.00 0.00 73 1012.6
20260503170917 14 196 1.6 4.8 0.00 0.00 0.00 74 1012.8
20260503170419 13 295 1.6 6.4 0.00 0.00 0.00 75 1012.6
20260503150917 12 156 4.8 4.8 0.00 0.00 0.00 82 1012.2
20260503150415 12 165 3.2 4.8 0.00 0.00 0.00 82 1012.0
20260503131419 11 170 3.2 4.8 0.00 0.00 0.00 83 1010.8
20260503130918 11 132 1.6 3.2 0.00 0.00 0.00 83 1010.9
20260503130416 11 0 0.0 1.6 0.00 0.00 0.00 83 1010.4
20260503110417 11 167 0.0 3.2 0.00 0.00 0.00 82 1010.8
20260503090417 11 194 1.6 3.2 0.00 0.00 0.00 82 1011.1
20260503081421 11 169 0.0 3.2 0.00 0.00 0.00 82 1011.8
20260503080918 11 156 1.6 3.2 0.00 0.00 0.00 82 1011.8
20260503080417 11 150 1.6 4.8 0.00 0.00 0.00 82 1011.6
20260503072919 11 150 4.8 4.8 0.00 0.00 0.00 81 1011.7
20260503072437 11 169 1.6 4.8 0.00 0.00 0.00 81 1011.6
20260503071916 11 203 3.2 3.2 0.00 0.00 0.00 81 1011.6
20260503071420 11 191 0.0 1.6 0.00 0.00 0.00 82 1011.8
20260503070919 11 216 1.6 4.8 0.00 0.00 0.00 81 1011.4
20260503070459 11 233 0.0 3.2 0.00 0.00 0.00 82 1011.6
20260503054919 12 200 1.6 3.2 0.00 0.00 0.00 81 1012.0
20260503054418 12 193 1.6 4.8 0.00 0.00 0.00 81 1012.0
20260503053917 12 209 4.8 4.8 0.00 0.00 0.00 81 1012.0
20260503053415 12 201 3.2 3.2 0.00 0.00 0.00 81 1012.1
20260503052919 12 185 3.2 4.8 0.00 0.00 0.00 81 1012.1
20260503052418 12 199 4.8 4.8 0.00 0.00 0.00 81 1012.0
20260503051917 12 222 3.2 4.8 0.00 0.00 0.00 81 1012.1
20260503051436 12 182 3.2 4.8 0.00 0.00 0.00 81 1012.1
20260503050919 12 217 3.2 6.4 0.00 0.00 0.00 81 1012.0
20260503050418 12 201 3.2 4.8 0.00 0.00 0.00 81 1012.0
20260503045917 12 219 4.8 4.8 0.00 0.00 0.00 81 1012.0
20260503045416 12 216 3.2 6.4 0.00 0.00 0.00 81 1012.1
20260503044919 12 186 3.2 3.2 0.00 0.00 0.00 81 1011.9
20260503044419 12 214 3.2 4.8 0.00 0.00 0.00 81 1012.1
20260503043917 12 198 3.2 4.8 0.00 0.00 0.00 81 1012.2
20260503043416 12 212 3.2 4.8 0.00 0.00 0.00 81 1011.9
20260503042919 12 189 3.2 4.8 0.00 0.00 0.00 80 1012.0
20260503042419 12 0 0.0 3.2 0.00 0.00 0.00 80 1012.1
20260503041938 12 206 3.2 4.8 0.00 0.00 0.00 80 1012.0
20260503041416 12 208 1.6 3.2 0.00 0.00 0.00 80 1012.1
20260503040920 12 176 3.2 3.2 0.00 0.00 0.00 80 1011.7
20260503040419 12 203 3.2 4.8 0.00 0.00 0.00 80 1012.0
20260503035917 12 207 3.2 4.8 0.00 0.00 0.00 80 1011.7
20260503035437 12 213 4.8 4.8 0.00 0.00 0.00 80 1011.7
20260503034915 12 215 4.8 4.8 0.00 0.00 0.00 80 1011.7
20260503034419 12 191 1.6 3.2 0.00 0.00 0.00 80 1011.4
20260503033918 12 217 3.2 4.8 0.00 0.00 0.00 80 1011.5
20260503033416 12 208 3.2 6.4 0.00 0.00 0.00 80 1011.4
20260503032920 12 134 3.2 6.4 0.00 0.00 0.00 80 1011.3
20260503032439 12 187 4.8 4.8 0.00 0.00 0.00 80 1011.3
20260503031917 12 193 4.8 8.0 0.00 0.00 0.00 80 1011.4
20260503031416 12 184 3.2 4.8 0.00 0.00 0.00 79 1011.2
20260503030920 12 208 4.8 6.4 0.00 0.00 0.00 79 1011.3
20260503030418 12 214 3.2 4.8 0.00 0.00 0.00 79 1011.2
20260503025918 12 205 3.2 4.8 0.00 0.00 0.00 79 1011.2
20260503025416 12 200 3.2 4.8 0.00 0.00 0.00 79 1011.2
20260503024920 12 211 3.2 4.8 0.00 0.00 0.00 79 1011.3
20260503024439 12 185 3.2 4.8 0.00 0.00 0.00 79 1011.1
20260503023917 12 171 3.2 4.8 0.00 0.00 0.00 79 1011.1
20260503023416 12 194 3.2 3.2 0.00 0.00 0.00 78 1011.1
20260503022920 12 184 3.2 6.4 0.00 0.00 0.00 78 1011.2
20260503022439 12 180 4.8 6.4 0.00 0.00 0.00 77 1011.3
20260503021917 12 197 4.8 6.4 0.00 0.00 0.00 77 1011.0
20260503021416 12 182 6.4 6.4 0.00 0.00 0.00 77 1011.1
20260503020919 12 195 3.2 4.8 0.00 0.00 0.00 77 1011.3
20260503020419 12 202 6.4 9.7 0.00 0.00 0.00 77 1011.2
20260503015917 12 198 3.2 3.2 0.00 0.00 0.00 77 1011.2
20260503015417 12 170 3.2 6.4 0.00 0.00 0.00 77 1011.1
20260503014920 12 205 6.4 8.0 0.00 0.00 0.00 76 1011.3
20260503014418 13 148 1.6 4.8 0.00 0.00 0.00 77 1011.2
20260503013918 13 202 3.2 4.8 0.00 0.00 0.00 76 1011.4
20260503013416 13 183 4.8 6.4 0.00 0.00 0.00 75 1011.6
20260503012920 13 204 3.2 6.4 0.00 0.00 0.00 75 1011.4
20260503012419 13 224 3.2 4.8 0.00 0.00 0.00 75 1011.5
20260503011938 13 300 3.2 3.2 0.00 0.00 0.00 75 1011.4
20260503011416 13 203 3.2 4.8 0.00 0.00 0.00 76 1011.7
20260503010920 13 169 4.8 4.8 0.00 0.00 0.00 75 1011.5
20260503010419 13 138 4.8 6.4 0.00 0.00 0.00 74 1011.4
20260503005918 13 204 4.8 6.4 0.00 0.00 0.00 74 1011.6
20260503005416 13 239 1.6 3.2 0.00 0.00 0.00 75 1011.5
20260503004920 13 231 4.8 6.4 0.00 0.00 0.00 73 1011.6
20260503004419 13 139 1.6 4.8 0.00 0.00 0.00 73 1011.6
20260503003917 13 110 3.2 6.4 0.00 0.00 0.00 73 1011.5
20260503003416 13 241 3.2 8.0 0.00 0.00 0.00 72 1011.5
20260503002920 13 136 1.6 3.2 0.00 0.00 0.00 72 1011.5
20260503002419 14 266 1.6 4.8 0.00 0.00 0.00 72 1011.6
20260503001917 14 218 3.2 9.7 0.00 0.00 0.00 71 1011.3
20260503001416 14 214 3.2 6.4 0.00 0.00 0.00 71 1011.6
20260503000920 14 197 3.2 6.4 0.00 0.00 0.00 70 1011.7
20260503000419 15 188 3.2 6.4 0.00 0.00 0.00 69 1011.6
20260502235918 15 295 1.6 6.4 0.00 0.00 0.00 70 1011.6
20260502235416 15 203 3.2 4.8 0.00 0.00 0.00 69 1011.5
20260502234920 15 215 4.8 8.0 0.00 0.00 0.00 68 1011.5
20260502234419 15 234 3.2 6.4 0.00 0.00 0.00 67 1011.9
20260502233918 15 116 3.2 6.4 0.00 0.00 0.00 69 1011.7
20260502233437 15 199 4.8 6.4 0.00 0.00 0.00 68 1011.6
20260502232920 16 246 3.2 6.4 0.00 0.00 0.00 67 1011.8
20260502232419 16 200 4.8 6.4 0.00 0.00 0.00 66 1011.8
20260502231938 16 132 3.2 4.8 0.00 0.00 0.00 66 1011.9
20260502231416 16 217 4.8 6.4 0.00 0.00 0.00 64 1011.7
20260502230920 17 65 3.2 4.8 0.00 0.00 0.00 64 1012.0
20260502230418 17 209 1.6 3.2 0.00 0.00 0.00 64 1011.9
20260502225917 17 227 3.2 4.8 0.00 0.00 0.00 62 1012.1
20260502225417 17 197 1.6 3.2 0.00 0.00 0.00 64 1012.3
20260502224940 17 136 3.2 3.2 0.00 0.00 0.00 64 1012.4
20260502224439 17 213 4.8 8.0 0.00 0.00 0.00 62 1012.2
20260502223937 17 222 3.2 8.0 0.00 0.00 0.00 63 1012.5
20260502223416 17 160 4.8 8.0 0.00 0.00 0.00 62 1012.5
20260502222940 17 225 6.4 8.0 0.00 0.00 0.00 63 1012.6
20260502222418 17 195 3.2 8.0 0.00 0.00 0.00 65 1012.6
20260502221917 17 213 1.6 4.8 0.00 0.00 0.00 64 1012.6
20260502221416 17 67 4.8 11.3 0.00 0.00 0.00 63 1012.8
20260502220919 17 244 3.2 6.4 0.00 0.00 0.00 63 1012.8
20260502220419 17 189 3.2 6.4 0.00 0.00 0.00 64 1012.7
20260502215917 17 205 3.2 6.4 0.00 0.00 0.00 67 1012.7
20260502215415 16 189 3.2 6.4 0.00 0.00 0.00 67 1012.6
20260502214920 16 211 3.2 4.8 0.00 0.00 0.00 68 1012.7
20260502214459 16 202 4.8 6.4 0.00 0.00 0.00 68 1012.8
20260502213917 16 207 8.0 9.7 0.00 0.00 0.00 70 1012.9
20260502213417 16 170 4.8 4.8 0.00 0.00 0.00 71 1012.8
20260502212920 16 198 1.6 4.8 0.00 0.00 0.00 70 1012.8
20260502212418 16 219 4.8 8.0 0.00 0.00 0.00 71 1013.0
20260502211917 16 208 4.8 6.4 0.00 0.00 0.00 72 1012.8
20260502211416 16 206 6.4 8.0 0.00 0.00 0.00 71 1012.9
20260502210920 16 162 3.2 6.4 0.00 0.00 0.00 70 1013.2
20260502210419 16 210 3.2 6.4 0.00 0.00 0.00 71 1013.1
20260502205938 16 220 6.4 12.9 0.00 0.00 0.00 70 1013.2
20260502205416 16 192 3.2 6.4 0.00 0.00 0.00 72 1013.2
20260502205002 16 267 3.2 4.8 0.00 0.00 0.00 72 1013.0
20260502204419 16 200 4.8 6.4 0.00 0.00 0.00 70 1013.0
20260502203918 16 222 3.2 4.8 0.00 0.00 0.00 70 1013.1
20260502203417 16 299 3.2 6.4 0.00 0.00 0.00 70 1013.1
20260502202919 16 222 3.2 8.0 0.00 0.00 0.00 71 1013.3
20260502202419 16 196 3.2 3.2 0.00 0.00 0.00 71 1013.4
20260502201917 16 255 3.2 6.4 0.00 0.00 0.00 70 1013.3
20260502201416 16 207 3.2 6.4 0.00 0.00 0.00 70 1013.1
20260502200920 16 202 1.6 3.2 0.00 0.00 0.00 70 1013.4